Time,TemperatureF,DewpointF,PressureIn,WindDirection,WindDirectionDegrees,WindSpeedMPH,WindSpeedGustMPH,Humidity,HourlyPrecipIn,Conditions,Clouds,dailyrainin,SoftwareType,DateUTC
2013-11-02 00:03:00,49.7,49.0,29.74,SSE,163,4.0,-999.0,97,-99.99,,,0.00,weatherlink.com 1.10,2013-11-02 07:03:00,
2013-11-02 00:18:00,49.7,49.0,29.73,South,180,1.0,-999.0,97,-99.99,,,0.00,weatherlink.com 1.10,2013-11-02 07:18:00,
2013-11-02 00:33:00,49.9,49.0,29.71,South,178,6.0,-999.0,97,-99.99,,,0.00,weatherlink.com 1.10,2013-11-02 07:33:00,
2013-11-02 00:48:00,50.1,49.0,29.70,SE,134,4.0,-999.0,97,-99.99,,,0.00,weatherlink.com 1.10,2013-11-02 07:48:00,
2013-11-02 01:03:00,50.1,49.0,29.68,SE,134,6.0,-999.0,97,-99.99,,,0.00,weatherlink.com 1.10,2013-11-02 08:03:00,
2013-11-02 01:18:00,50.2,49.0,29.66,SE,128,4.0,-999.0,97,-99.99,,,0.00,weatherlink.com 1.10,2013-11-02 08:18:00,
2013-11-02 01:33:00,50.2,49.0,29.64,ESE,107,0.0,-999.0,96,-99.99,,,0.00,weatherlink.com 1.10,2013-11-02 08:33:00,
2013-11-02 01:48:00,50.1,49.0,29.65,ESE,107,0.0,-999.0,97,-99.99,,,0.00,weatherlink.com 1.10,2013-11-02 08:48:00,
2013-11-02 02:03:00,50.2,49.0,29.64,South,184,2.0,-999.0,97,-99.99,,,0.00,weatherlink.com 1.10,2013-11-02 09:03:00,
2013-11-02 02:18:00,50.3,50.0,29.64,SSW,202,2.0,-999.0,97,-99.99,,,0.00,weatherlink.com 1.10,2013-11-02 09:18:00,
2013-11-02 02:33:00,50.3,50.0,29.63,South,188,0.0,-999.0,97,-99.99,,,0.00,weatherlink.com 1.10,2013-11-02 09:33:00,
2013-11-02 02:48:00,50.2,49.0,29.61,NNE,26,3.0,-999.0,97,-99.99,,,0.00,weatherlink.com 1.10,2013-11-02 09:48:00,
2013-11-02 03:03:00,49.9,49.0,29.58,ESE,107,1.0,-999.0,97,-99.99,,,0.00,weatherlink.com 1.10,2013-11-02 10:03:00,
2013-11-02 03:18:00,50.2,49.0,29.58,NW,315,0.0,-999.0,97,-99.99,,,0.00,weatherlink.com 1.10,2013-11-02 10:18:00,
2013-11-02 03:33:00,50.1,49.0,29.55,North,351,0.0,-999.0,97,-99.99,,,0.00,weatherlink.com 1.10,2013-11-02 10:33:00,
2013-11-02 03:48:00,50.1,49.0,29.52,East,88,2.0,-999.0,97,-99.99,,,0.00,weatherlink.com 1.10,2013-11-02 10:48:00,
2013-11-02 04:03:00,50.3,50.0,29.50,SE,141,6.0,-999.0,97,-99.99,,,0.00,weatherlink.com 1.10,2013-11-02 11:03:00,
2013-11-02 04:18:00,50.5,50.0,29.49,ESE,122,1.0,-999.0,97,-99.99,,,0.00,weatherlink.com 1.10,2013-11-02 11:18:00,
2013-11-02 04:33:00,50.4,50.0,29.48,South,178,4.0,-999.0,97,-99.99,,,0.00,weatherlink.com 1.10,2013-11-02 11:33:00,
2013-11-02 04:48:00,50.1,49.0,29.47,SSE,159,3.0,-999.0,97,-99.99,,,0.00,weatherlink.com 1.10,2013-11-02 11:48:00,
2013-11-02 05:03:00,50.2,49.0,29.46,SSE,154,5.0,-999.0,96,-99.99,,,0.00,weatherlink.com 1.10,2013-11-02 12:03:00,
2013-11-02 05:18:00,50.4,49.0,29.43,SE,139,6.0,-999.0,96,-99.99,,,0.00,weatherlink.com 1.10,2013-11-02 12:18:00,
2013-11-02 05:33:00,50.4,49.0,29.42,South,176,3.0,-999.0,96,-99.99,,,0.00,weatherlink.com 1.10,2013-11-02 12:33:00,
2013-11-02 05:48:00,50.4,49.0,29.39,SE,138,11.0,-999.0,96,-99.99,,,0.00,weatherlink.com 1.10,2013-11-02 12:48:00,
2013-11-02 06:03:00,50.5,49.0,29.38,SE,126,3.0,-999.0,95,-99.99,,,0.00,weatherlink.com 1.10,2013-11-02 13:03:00,
2013-11-02 06:18:00,50.5,49.0,29.38,SSE,157,10.0,-999.0,95,-99.99,,,0.00,weatherlink.com 1.10,2013-11-02 13:18:00,
2013-11-02 06:33:00,50.5,49.0,29.37,SSE,150,14.0,-999.0,94,-99.99,,,0.00,weatherlink.com 1.10,2013-11-02 13:33:00,
2013-11-02 06:49:00,50.4,49.0,29.34,SE,138,4.0,-999.0,94,-99.99,,,0.00,weatherlink.com 1.10,2013-11-02 13:49:00,
2013-11-02 07:04:00,50.2,49.0,29.33,SSE,165,1.0,-999.0,95,-99.99,,,0.00,weatherlink.com 1.10,2013-11-02 14:04:00,
2013-11-02 07:19:00,49.9,49.0,29.33,South,169,5.0,-999.0,95,-99.99,,,0.00,weatherlink.com 1.10,2013-11-02 14:19:00,
2013-11-02 07:34:00,50.1,49.0,29.33,SSE,159,5.0,-999.0,94,-99.99,,,0.00,weatherlink.com 1.10,2013-11-02 14:34:00,
2013-11-02 07:49:00,50.4,49.0,29.33,SSE,160,10.0,-999.0,94,-99.99,,,0.00,weatherlink.com 1.10,2013-11-02 14:49:00,
2013-11-02 08:04:00,50.1,49.0,29.33,SSE,167,6.0,-999.0,94,-99.99,,,0.00,weatherlink.com 1.10,2013-11-02 15:04:00,
2013-11-02 08:19:00,49.6,48.0,29.33,SE,128,2.0,-999.0,95,-99.99,,,0.00,weatherlink.com 1.10,2013-11-02 15:19:00,
2013-11-02 08:34:00,49.9,49.0,29.34,SSE,165,3.0,-999.0,96,-99.99,,,0.00,weatherlink.com 1.10,2013-11-02 15:34:00,
2013-11-02 08:49:00,49.8,49.0,29.34,SSW,200,0.0,-999.0,96,-99.99,,,0.00,weatherlink.com 1.10,2013-11-02 15:49:00,
2013-11-02 09:04:00,49.7,49.0,29.35,SSW,200,0.0,-999.0,96,-99.99,,,0.00,weatherlink.com 1.10,2013-11-02 16:04:00,
2013-11-02 09:19:00,49.8,49.0,29.37,West,273,4.0,-999.0,96,-99.99,,,0.00,weatherlink.com 1.10,2013-11-02 16:19:00,
2013-11-02 09:34:00,48.1,47.0,29.40,WSW,248,1.0,-999.0,95,-99.99,,,0.00,weatherlink.com 1.10,2013-11-02 16:34:00,
2013-11-02 09:49:00,46.4,45.0,29.42,South,170,9.0,-999.0,95,-99.99,,,0.00,weatherlink.com 1.10,2013-11-02 16:49:00,
2013-11-02 10:04:00,45.6,44.0,29.45,SW,219,5.0,-999.0,95,-99.99,,,0.00,weatherlink.com 1.10,2013-11-02 17:04:00,
2013-11-02 10:19:00,45.2,44.0,29.47,ESE,110,1.0,-999.0,95,-99.99,,,0.00,weatherlink.com 1.10,2013-11-02 17:19:00,
2013-11-02 10:34:00,45.1,44.0,29.49,WNW,300,4.0,-999.0,95,-99.99,,,0.00,weatherlink.com 1.10,2013-11-02 17:34:00,
2013-11-02 10:49:00,45.1,44.0,29.51,West,276,3.0,-999.0,95,-99.99,,,0.00,weatherlink.com 1.10,2013-11-02 17:49:00,
2013-11-02 11:04:00,45.2,44.0,29.54,SW,221,4.0,-999.0,95,-99.99,,,0.00,weatherlink.com 1.10,2013-11-02 18:04:00,
2013-11-02 11:19:00,44.8,43.0,29.55,NW,310,1.0,-999.0,94,-99.99,,,0.00,weatherlink.com 1.10,2013-11-02 18:19:00,
2013-11-02 11:34:00,44.7,43.0,29.56,SW,230,0.0,-999.0,95,-99.99,,,0.00,weatherlink.com 1.10,2013-11-02 18:34:00,
2013-11-02 11:49:00,45.0,44.0,29.57,ENE,76,0.0,-999.0,95,-99.99,,,0.00,weatherlink.com 1.10,2013-11-02 18:49:00,
2013-11-02 12:04:00,45.6,44.0,29.59,NE,41,0.0,-999.0,95,-99.99,,,0.00,weatherlink.com 1.10,2013-11-02 19:04:00,
2013-11-02 12:19:00,46.4,45.0,29.60,East,84,1.0,-999.0,95,-99.99,,,0.00,weatherlink.com 1.10,2013-11-02 19:19:00,
2013-11-02 12:34:00,47.0,45.0,29.61,ESE,115,1.0,-999.0,93,-99.99,,,0.00,weatherlink.com 1.10,2013-11-02 19:34:00,
2013-11-02 12:49:00,47.7,45.0,29.62,NNE,15,4.0,-999.0,90,-99.99,,,0.00,weatherlink.com 1.10,2013-11-02 19:49:00,
2013-11-02 13:04:00,49.1,46.0,29.63,SE,132,7.0,-999.0,88,-99.99,,,0.00,weatherlink.com 1.10,2013-11-02 20:04:00,
2013-11-02 13:19:00,49.8,45.0,29.64,NE,51,5.0,-999.0,84,-99.99,,,0.00,weatherlink.com 1.10,2013-11-02 20:19:00,
2013-11-02 13:34:00,49.8,45.0,29.65,SW,229,7.0,-999.0,82,-99.99,,,0.00,weatherlink.com 1.10,2013-11-02 20:34:00,
2013-11-02 13:49:00,49.7,44.0,29.65,NE,36,0.0,-999.0,82,-99.99,,,0.00,weatherlink.com 1.10,2013-11-02 20:49:00,
2013-11-02 14:04:00,49.6,44.0,29.66,WNW,288,2.0,-999.0,81,-99.99,,,0.00,weatherlink.com 1.10,2013-11-02 21:04:00,
2013-11-02 14:19:00,49.4,44.0,29.67,NNE,17,1.0,-999.0,81,-99.99,,,0.00,weatherlink.com 1.10,2013-11-02 21:19:00,
2013-11-02 14:34:00,49.7,44.0,29.67,NW,317,7.0,-999.0,81,-99.99,,,0.00,weatherlink.com 1.10,2013-11-02 21:34:00,
2013-11-02 14:49:00,50.2,44.0,29.68,West,267,7.0,-999.0,79,-99.99,,,0.00,weatherlink.com 1.10,2013-11-02 21:49:00,
2013-11-02 15:04:00,50.9,44.0,29.69,WNW,295,3.0,-999.0,78,-99.99,,,0.00,weatherlink.com 1.10,2013-11-02 22:04:00,
2013-11-02 15:19:00,51.4,44.0,29.70,West,279,4.0,-999.0,75,-99.99,,,0.00,weatherlink.com 1.10,2013-11-02 22:19:00,
2013-11-02 15:34:00,51.1,44.0,29.70,SW,232,2.0,-999.0,76,-99.99,,,0.00,weatherlink.com 1.10,2013-11-02 22:34:00,
2013-11-02 15:49:00,50.7,44.0,29.71,WNW,303,3.0,-999.0,77,-99.99,,,0.00,weatherlink.com 1.10,2013-11-02 22:49:00,
2013-11-02 16:04:00,50.6,44.0,29.73,West,268,9.0,-999.0,78,-99.99,,,0.00,weatherlink.com 1.10,2013-11-02 23:04:00,
2013-11-02 16:19:00,50.1,44.0,29.73,NW,317,5.0,-999.0,78,-99.99,,,0.00,weatherlink.com 1.10,2013-11-02 23:19:00,
2013-11-02 16:34:00,49.6,43.0,29.74,ENE,72,0.0,-999.0,79,-99.99,,,0.00,weatherlink.com 1.10,2013-11-02 23:34:00,
2013-11-02 16:49:00,49.7,43.0,29.74,NE,38,6.0,-999.0,79,-99.99,,,0.00,weatherlink.com 1.10,2013-11-02 23:49:00,
2013-11-02 17:04:00,49.8,44.0,29.75,SE,145,0.0,-999.0,79,-99.99,,,0.00,weatherlink.com 1.10,2013-11-03 00:04:00,
2013-11-02 17:19:00,49.7,43.0,29.76,NNW,327,0.0,-999.0,79,-99.99,,,0.00,weatherlink.com 1.10,2013-11-03 00:19:00,
2013-11-02 17:34:00,49.4,44.0,29.75,NE,54,0.0,-999.0,80,-99.99,,,0.00,weatherlink.com 1.10,2013-11-03 00:34:00,
2013-11-02 17:49:00,48.9,43.0,29.76,NNW,340,5.0,-999.0,80,-99.99,,,0.00,weatherlink.com 1.10,2013-11-03 00:49:00,
2013-11-02 18:04:00,48.7,43.0,29.77,WNW,294,0.0,-999.0,81,-99.99,,,0.00,weatherlink.com 1.10,2013-11-03 01:04:00,
2013-11-02 18:19:00,48.5,43.0,29.77,SW,224,11.0,-999.0,81,-99.99,,,0.00,weatherlink.com 1.10,2013-11-03 01:19:00,
2013-11-02 18:34:00,48.3,43.0,29.77,SSW,211,4.0,-999.0,81,-99.99,,,0.00,weatherlink.com 1.10,2013-11-03 01:34:00,
2013-11-02 18:49:00,48.3,43.0,29.78,West,276,2.0,-999.0,81,-99.99,,,0.00,weatherlink.com 1.10,2013-11-03 01:49:00,
2013-11-02 19:04:00,48.2,43.0,29.78,WNW,288,0.0,-999.0,82,-99.99,,,0.00,weatherlink.com 1.10,2013-11-03 02:04:00,
2013-11-02 19:19:00,48.1,43.0,29.78,West,270,0.0,-999.0,82,-99.99,,,0.00,weatherlink.com 1.10,2013-11-03 02:19:00,
2013-11-02 19:34:00,47.9,43.0,29.78,West,266,0.0,-999.0,83,-99.99,,,0.00,weatherlink.com 1.10,2013-11-03 02:34:00,
2013-11-02 19:49:00,47.7,43.0,29.79,WNW,296,0.0,-999.0,83,-99.99,,,0.00,weatherlink.com 1.10,2013-11-03 02:49:00,
2013-11-02 20:05:00,47.4,43.0,29.80,SSW,194,0.0,-999.0,84,-99.99,,,0.00,weatherlink.com 1.10,2013-11-03 03:05:00,
2013-11-02 20:19:00,47.2,43.0,29.80,South,187,0.0,-999.0,84,-99.99,,,0.00,weatherlink.com 1.10,2013-11-03 03:19:00,
2013-11-02 20:34:00,47.0,43.0,29.80,NW,313,0.0,-999.0,85,-99.99,,,0.00,weatherlink.com 1.10,2013-11-03 03:34:00,
2013-11-02 20:49:00,47.0,43.0,29.80,South,178,0.0,-999.0,85,-99.99,,,0.00,weatherlink.com 1.10,2013-11-03 03:49:00,
2013-11-02 21:04:00,46.9,43.0,29.81,SW,215,0.0,-999.0,85,-99.99,,,0.00,weatherlink.com 1.10,2013-11-03 04:04:00,
2013-11-02 21:19:00,46.8,43.0,29.81,SW,217,0.0,-999.0,85,-99.99,,,0.00,weatherlink.com 1.10,2013-11-03 04:19:00,
2013-11-02 21:34:00,46.7,43.0,29.82,SSW,199,0.0,-999.0,86,-99.99,,,0.00,weatherlink.com 1.10,2013-11-03 04:34:00,
2013-11-02 21:49:00,46.6,43.0,29.82,SW,222,0.0,-999.0,86,-99.99,,,0.00,weatherlink.com 1.10,2013-11-03 04:49:00,
2013-11-02 22:04:00,46.3,42.0,29.82,South,175,0.0,-999.0,86,-99.99,,,0.00,weatherlink.com 1.10,2013-11-03 05:04:00,
2013-11-02 22:19:00,45.9,42.0,29.83,South,173,0.0,-999.0,87,-99.99,,,0.00,weatherlink.com 1.10,2013-11-03 05:19:00,
2013-11-02 22:34:00,45.2,42.0,29.83,SSW,211,0.0,-999.0,88,-99.99,,,0.00,weatherlink.com 1.10,2013-11-03 05:34:00,
2013-11-02 22:49:00,45.0,42.0,29.83,SSW,198,0.0,-999.0,88,-99.99,,,0.00,weatherlink.com 1.10,2013-11-03 05:49:00,
2013-11-02 23:04:00,45.0,42.0,29.84,SSW,197,0.0,-999.0,89,-99.99,,,0.00,weatherlink.com 1.10,2013-11-03 06:04:00,
2013-11-02 23:20:00,44.5,42.0,29.84,WSW,238,0.0,-999.0,89,-99.99,,,0.00,weatherlink.com 1.10,2013-11-03 06:20:00,
2013-11-02 23:35:00,44.1,41.0,29.84,WSW,240,0.0,-999.0,88,-99.99,,,0.00,weatherlink.com 1.10,2013-11-03 06:35:00,
2013-11-02 23:50:00,43.4,40.0,29.85,WSW,240,0.0,-999.0,89,-99.99,,,0.00,weatherlink.com 1.10,2013-11-03 06:50:00,